Location: Drocourt
(49.0571°N, 1.7669°E)
Time: 19:20:49
(UTC+00:00)

S-56A Canister/Altair - Pass Details

Date: 16 April 2024
Orbit: 638 x 2488 km, 38.9° (Epoch: 20 May)

Event Time Altitude Azimuth Distance (km) Brightness Sun altitude
Rises 19:04:37 0° 242° (WSW) 3,648 11.7 -3.5°
Reaches altitude 10° 19:07:00 10° 235° (SW) 2,896 11.0 -3.9°
Maximum altitude 19:13:39 41° 167° (SSE) 1,902 9.3 -4.9°
Drops below altitude 10° 19:23:23 10° 102° (ESE) 4,225 10.7 -6.4°
Enters shadow 19:25:04 - 100° (E) 4,731 10.9 -6.6°
Sets 19:27:38 0° 97° (E) 5,502 - -7.0°
